Time,TemperatureF,DewpointF,PressureIn,WindDirection,WindDirectionDegrees,WindSpeedMPH,WindSpeedGustMPH,Humidity,HourlyPrecipIn,Conditions,Clouds,dailyrainin,SoftwareType,DateUTC
2013-06-12 00:00:00,66.5,61.9,29.80,WSW,246,0.0,0.0,85,0.00,,SCT220,0.00,VWS V14.01,2013-06-12 04:00:00,
2013-06-12 00:01:00,66.4,61.8,29.80,WSW,246,0.0,0.0,85,0.00,,SCT220,0.00,VWS V14.01,2013-06-12 04:01:00,
2013-06-12 00:02:00,66.4,61.8,29.80,WSW,246,0.0,0.0,85,0.00,,SCT220,0.00,VWS V14.01,2013-06-12 04:02:00,
2013-06-12 00:05:00,66.3,61.7,29.80,WSW,246,0.0,0.0,85,0.00,,SCT220,0.00,VWS V14.01,2013-06-12 04:05:00,
2013-06-12 00:06:00,66.2,61.6,29.79,WSW,246,0.0,0.0,85,0.00,,SCT220,0.00,VWS V14.01,2013-06-12 04:06:00,
2013-06-12 00:11:00,66.0,61.4,29.80,WSW,246,0.0,0.0,85,0.00,,CLR,0.00,VWS V14.01,2013-06-12 04:11:00,
2013-06-12 00:15:00,65.9,61.3,29.80,WSW,246,0.0,0.0,85,0.00,,SCT033,0.00,VWS V15.00,2013-06-12 04:15:00,
2013-06-12 00:17:00,65.9,61.3,29.80,WSW,246,0.0,0.0,85,0.00,,CLR,0.00,VWS V14.01,2013-06-12 04:17:00,
2013-06-12 00:22:00,65.8,61.5,29.80,WSW,246,0.0,0.0,86,0.00,,CLR,0.00,VWS V14.01,2013-06-12 04:22:00,
2013-06-12 00:27:00,65.6,61.3,29.80,WSW,246,0.0,0.0,86,0.00,,CLR,0.00,VWS V14.01,2013-06-12 04:27:00,
2013-06-12 00:30:00,65.5,61.2,29.80,WSW,246,0.0,0.0,86,0.00,,SCT033,0.00,VWS V15.00,2013-06-12 04:30:00,
2013-06-12 00:32:00,65.5,61.2,29.80,WSW,246,0.0,0.0,86,0.00,,CLR,0.00,VWS V14.01,2013-06-12 04:32:00,
2013-06-12 00:37:00,65.3,61.0,29.80,WSW,246,0.0,0.0,86,0.00,,CLR,0.00,VWS V14.01,2013-06-12 04:37:00,
2013-06-12 00:42:00,65.0,60.7,29.80,WSW,246,0.0,0.0,86,0.00,,CLR,0.00,VWS V14.01,2013-06-12 04:42:00,
2013-06-12 00:45:00,64.9,60.6,29.80,WSW,246,0.0,0.0,86,0.00,,SCT033,0.00,VWS V15.00,2013-06-12 04:45:00,
2013-06-12 00:47:00,64.9,60.6,29.81,WSW,246,0.0,0.0,86,0.00,,CLR,0.00,VWS V14.01,2013-06-12 04:47:00,
2013-06-12 00:52:00,64.8,60.5,29.80,WSW,246,0.0,0.0,86,0.00,,CLR,0.00,VWS V14.01,2013-06-12 04:52:00,
2013-06-12 00:57:00,64.7,60.4,29.80,WSW,246,0.0,0.0,86,0.00,,CLR,0.00,VWS V14.01,2013-06-12 04:57:00,
2013-06-12 01:00:00,64.7,60.8,29.80,WSW,246,0.0,0.0,87,0.00,,SCT033,0.00,VWS V15.00,2013-06-12 05:00:00,
2013-06-12 01:02:00,64.7,60.8,29.80,WSW,246,0.0,0.0,87,0.00,,CLR,0.00,VWS V14.01,2013-06-12 05:02:00,
2013-06-12 01:07:00,64.5,60.5,29.80,WSW,246,0.0,0.0,87,0.00,,CLR,0.00,VWS V14.01,2013-06-12 05:07:00,
2013-06-12 01:12:00,64.4,60.5,29.80,WSW,246,0.0,0.0,87,0.00,,CLR,0.00,VWS V14.01,2013-06-12 05:12:00,
2013-06-12 01:15:00,64.4,60.5,29.80,WSW,246,0.0,0.0,87,0.00,,SCT033,0.00,VWS V15.00,2013-06-12 05:15:00,
2013-06-12 01:18:00,64.3,60.3,29.80,WSW,246,0.0,0.0,87,0.00,,CLR,0.00,VWS V14.01,2013-06-12 05:18:00,
2013-06-12 01:23:00,64.1,60.2,29.80,WSW,246,0.0,0.0,87,0.00,,CLR,0.00,VWS V14.01,2013-06-12 05:23:00,
2013-06-12 01:28:00,64.0,60.1,29.80,WSW,246,0.0,0.0,87,0.00,,CLR,0.00,VWS V14.01,2013-06-12 05:28:00,
2013-06-12 01:30:00,63.9,60.0,29.80,WSW,246,0.0,0.0,87,0.00,,SCT033,0.00,VWS V15.00,2013-06-12 05:30:00,
2013-06-12 01:33:00,63.9,60.0,29.81,WSW,246,0.0,0.0,87,0.00,,CLR,0.00,VWS V14.01,2013-06-12 05:33:00,
2013-06-12 01:38:00,63.8,60.2,29.80,WSW,246,0.0,0.0,88,0.00,,CLR,0.00,VWS V14.01,2013-06-12 05:38:00,
2013-06-12 01:43:00,63.7,60.1,29.80,WSW,246,0.0,0.0,88,0.00,,CLR,0.00,VWS V14.01,2013-06-12 05:43:00,
2013-06-12 01:45:00,63.7,60.1,29.80,WSW,246,0.0,0.0,88,0.00,,SCT033,0.00,VWS V15.00,2013-06-12 05:45:00,
2013-06-12 01:48:00,63.8,60.2,29.80,WSW,246,0.0,0.0,88,0.00,,CLR,0.00,VWS V14.01,2013-06-12 05:48:00,
2013-06-12 01:53:00,63.7,60.1,29.80,WSW,246,0.0,0.0,88,0.00,,CLR,0.00,VWS V14.01,2013-06-12 05:53:00,
2013-06-12 01:58:00,63.7,60.4,29.80,WSW,246,0.0,0.0,89,0.00,,CLR,0.00,VWS V14.01,2013-06-12 05:58:00,
2013-06-12 02:00:00,63.6,60.3,29.80,WSW,246,0.0,0.0,89,0.00,,SCT033,0.00,VWS V15.00,2013-06-12 06:00:00,
2013-06-12 02:03:00,63.6,60.3,29.79,WSW,246,0.0,0.0,89,0.00,,CLR,0.00,VWS V14.01,2013-06-12 06:03:00,
2013-06-12 02:08:00,63.5,60.2,29.79,WSW,246,0.0,0.0,89,0.00,,CLR,0.00,VWS V14.01,2013-06-12 06:08:00,
2013-06-12 02:14:00,63.4,60.1,29.79,WSW,246,0.0,0.0,89,0.00,,CLR,0.00,VWS V14.01,2013-06-12 06:14:00,
2013-06-12 02:15:00,63.4,60.1,29.79,WSW,246,0.0,0.0,89,0.00,,SCT033,0.00,VWS V15.00,2013-06-12 06:15:00,
2013-06-12 02:19:00,63.3,60.0,29.79,WSW,246,0.0,0.0,89,0.00,,CLR,0.00,VWS V14.01,2013-06-12 06:19:00,
2013-06-12 02:24:00,63.2,59.9,29.79,WSW,246,0.0,0.0,89,0.00,,CLR,0.00,VWS V14.01,2013-06-12 06:24:00,
2013-06-12 02:29:00,63.1,59.8,29.78,WSW,246,0.0,0.0,89,0.00,,CLR,0.00,VWS V14.01,2013-06-12 06:29:00,
2013-06-12 02:30:00,63.1,59.8,29.78,WSW,246,0.0,0.0,89,0.00,,SCT033,0.00,VWS V15.00,2013-06-12 06:30:00,
2013-06-12 02:34:00,63.0,59.7,29.78,WSW,246,0.0,0.0,89,0.00,,CLR,0.00,VWS V14.01,2013-06-12 06:34:00,
2013-06-12 02:39:00,62.9,59.6,29.78,WSW,246,0.0,0.0,89,0.00,,CLR,0.00,VWS V14.01,2013-06-12 06:39:00,
2013-06-12 02:44:00,62.8,59.5,29.78,WSW,246,0.0,0.0,89,0.00,,CLR,0.00,VWS V14.01,2013-06-12 06:44:00,
2013-06-12 02:45:00,62.8,59.5,29.78,WSW,246,0.0,0.0,89,0.00,,SCT033,0.00,VWS V15.00,2013-06-12 06:45:00,
2013-06-12 02:49:00,62.7,59.4,29.78,WSW,246,0.0,0.0,89,0.00,,CLR,0.00,VWS V14.01,2013-06-12 06:49:00,
2013-06-12 02:54:00,62.7,59.7,29.79,WSW,246,0.0,0.0,90,0.00,,CLR,0.00,VWS V14.01,2013-06-12 06:54:00,
2013-06-12 02:59:00,62.7,59.7,29.79,WSW,246,0.0,0.0,90,0.00,,CLR,0.00,VWS V14.01,2013-06-12 06:59:00,
2013-06-12 03:00:00,62.7,59.7,29.79,WSW,246,0.0,0.0,90,0.00,,SCT033,0.00,VWS V15.00,2013-06-12 07:00:00,
2013-06-12 03:04:00,62.7,59.7,29.80,WSW,246,0.0,0.0,90,0.00,,CLR,0.00,VWS V14.01,2013-06-12 07:04:00,
2013-06-12 03:09:00,62.6,59.6,29.80,WSW,246,0.0,0.0,90,0.00,,CLR,0.00,VWS V14.01,2013-06-12 07:09:00,
2013-06-12 03:14:00,62.5,59.5,29.81,WSW,246,0.0,0.0,90,0.00,,,0.00,VWS V14.01,2013-06-12 07:14:00,
2013-06-12 03:15:00,62.4,59.4,29.81,WSW,246,0.0,0.0,90,0.00,,SCT033,0.00,VWS V15.00,2013-06-12 07:15:00,
2013-06-12 03:20:00,62.3,59.3,29.82,WSW,246,0.0,0.0,90,0.00,,,0.00,VWS V14.01,2013-06-12 07:20:00,
2013-06-12 03:25:00,62.3,59.3,29.82,WSW,246,0.0,0.0,90,0.00,,,0.00,VWS V14.01,2013-06-12 07:25:00,
2013-06-12 03:30:00,62.2,59.2,29.83,WSW,246,0.0,0.0,90,0.00,,,0.00,VWS V14.01,2013-06-12 07:30:00,
2013-06-12 03:35:00,62.2,59.2,29.83,WSW,246,0.0,0.0,90,0.00,,,0.00,VWS V14.01,2013-06-12 07:35:00,
2013-06-12 03:40:00,62.2,59.2,29.84,WSW,246,0.0,0.0,90,0.00,,,0.00,VWS V14.01,2013-06-12 07:40:00,
2013-06-12 03:45:00,62.1,59.1,29.83,WSW,246,0.0,0.0,90,0.00,,,0.00,VWS V14.01,2013-06-12 07:45:00,
2013-06-12 03:50:00,62.2,59.5,29.83,WSW,246,0.0,0.0,91,0.00,,,0.00,VWS V14.01,2013-06-12 07:50:00,
2013-06-12 03:55:00,62.2,59.5,29.83,WSW,246,0.0,0.0,91,0.00,,,0.00,VWS V14.01,2013-06-12 07:55:00,
2013-06-12 04:00:00,62.2,59.5,29.83,WSW,246,0.0,0.0,91,0.00,,,0.00,VWS V14.01,2013-06-12 08:00:00,
2013-06-12 04:06:00,62.2,59.5,29.83,WSW,246,0.0,0.0,91,0.00,,CLR,0.00,VWS V14.01,2013-06-12 08:06:00,
2013-06-12 04:11:00,62.3,59.6,29.82,WSW,246,0.0,0.0,91,0.00,,CLR,0.00,VWS V14.01,2013-06-12 08:11:00,
2013-06-12 04:15:00,62.5,59.8,29.81,WSW,246,0.0,0.0,91,0.00,,SCT033,0.00,VWS V15.00,2013-06-12 08:15:00,
2013-06-12 04:16:00,62.5,59.8,29.81,WSW,246,0.0,0.0,91,0.00,,CLR,0.00,VWS V14.01,2013-06-12 08:16:00,
2013-06-12 04:21:00,62.5,60.2,29.81,WSW,246,0.0,0.0,92,0.00,,CLR,0.00,VWS V14.01,2013-06-12 08:21:00,
2013-06-12 04:26:00,62.7,60.3,29.80,WSW,246,0.0,0.0,92,0.00,,CLR,0.00,VWS V14.01,2013-06-12 08:26:00,
2013-06-12 04:30:00,62.8,60.5,29.81,WSW,246,0.0,0.0,92,0.00,,SCT033,0.00,VWS V15.00,2013-06-12 08:30:00,
2013-06-12 04:31:00,62.8,60.5,29.80,WSW,246,0.0,0.0,92,0.00,,CLR,0.00,VWS V14.01,2013-06-12 08:31:00,
2013-06-12 04:36:00,62.9,60.5,29.80,WSW,246,0.0,0.0,92,0.00,,CLR,0.00,VWS V14.01,2013-06-12 08:36:00,
2013-06-12 04:41:00,63.0,60.6,29.80,WSW,246,0.0,0.0,92,0.00,,CLR,0.00,VWS V14.01,2013-06-12 08:41:00,
2013-06-12 04:45:00,63.1,60.7,29.79,WSW,246,0.0,0.0,92,0.00,,SCT033,0.00,VWS V15.00,2013-06-12 08:45:00,
2013-06-12 04:46:00,63.2,60.8,29.79,WSW,246,0.0,0.0,92,0.00,,CLR,0.00,VWS V14.01,2013-06-12 08:46:00,
2013-06-12 04:51:00,63.4,61.0,29.78,WSW,246,0.0,0.0,92,0.00,,CLR,0.00,VWS V14.01,2013-06-12 08:51:00,
2013-06-12 04:56:00,63.4,61.0,29.78,WSW,246,0.0,0.0,92,0.00,,CLR,0.00,VWS V14.01,2013-06-12 08:56:00,
2013-06-12 05:00:00,63.5,61.1,29.78,WSW,246,0.0,0.0,92,0.00,,SCT033,0.00,VWS V15.00,2013-06-12 09:00:00,
2013-06-12 05:01:00,63.5,61.1,29.78,WSW,246,0.0,0.0,92,0.00,,,0.00,VWS V14.01,2013-06-12 09:01:00,
2013-06-12 05:06:00,63.6,61.2,29.80,WSW,246,0.0,0.0,92,0.00,,,0.00,VWS V14.01,2013-06-12 09:06:00,
2013-06-12 05:11:00,63.7,61.3,29.81,WSW,246,0.0,0.0,92,0.00,,,0.00,VWS V14.01,2013-06-12 09:11:00,
2013-06-12 05:15:00,63.7,61.3,29.81,WSW,246,0.0,0.0,92,0.00,,SCT033,0.00,VWS V15.00,2013-06-12 09:15:00,
2013-06-12 05:16:00,63.7,61.3,29.82,WSW,246,0.0,0.0,92,0.00,,,0.00,VWS V14.01,2013-06-12 09:16:00,
2013-06-12 05:21:00,63.7,61.3,29.82,WSW,246,0.0,0.0,92,0.00,,,0.00,VWS V14.01,2013-06-12 09:21:00,
2013-06-12 05:26:00,63.7,61.3,29.82,WSW,246,0.0,0.0,92,0.00,,,0.00,VWS V14.01,2013-06-12 09:26:00,
2013-06-12 05:30:00,63.6,61.2,29.82,WSW,246,0.0,0.0,92,0.00,,SCT033,0.00,VWS V15.00,2013-06-12 09:30:00,
2013-06-12 05:31:00,63.6,61.2,29.81,WSW,246,0.0,0.0,92,0.00,,,0.00,VWS V14.01,2013-06-12 09:31:00,
2013-06-12 05:36:00,63.6,61.2,29.81,WSW,246,0.0,0.0,92,0.00,,,0.00,VWS V14.01,2013-06-12 09:36:00,
2013-06-12 05:41:00,63.5,61.4,29.82,WSW,246,0.0,0.0,93,0.00,,,0.00,VWS V14.01,2013-06-12 09:41:00,
2013-06-12 05:45:00,63.5,61.4,29.82,WSW,246,0.0,0.0,93,0.00,,SCT033,0.00,VWS V15.00,2013-06-12 09:45:00,
2013-06-12 05:46:00,63.4,61.3,29.83,WSW,246,0.0,0.0,93,0.00,,,0.00,VWS V14.01,2013-06-12 09:46:00,
2013-06-12 05:51:00,63.4,61.3,29.83,WSW,246,0.0,0.0,93,0.00,,,0.00,VWS V14.01,2013-06-12 09:51:00,
2013-06-12 05:56:00,63.3,61.2,29.83,WSW,246,0.0,0.0,93,0.00,,,0.00,VWS V14.01,2013-06-12 09:56:00,
2013-06-12 06:00:00,63.2,61.2,29.83,WSW,246,0.0,0.0,93,0.00,,SCT033,0.00,VWS V15.00,2013-06-12 10:00:00,
2013-06-12 06:01:00,63.2,61.2,29.84,WSW,246,0.0,0.0,93,0.00,,,0.00,VWS V14.01,2013-06-12 10:01:00,
2013-06-12 06:07:00,63.2,61.2,29.84,WSW,246,0.0,0.0,93,0.00,,,0.00,VWS V14.01,2013-06-12 10:07:00,
2013-06-12 06:12:00,63.2,61.2,29.83,WSW,246,0.0,0.0,93,0.00,,,0.00,VWS V14.01,2013-06-12 10:12:00,
2013-06-12 06:15:00,63.2,61.2,29.83,WSW,246,0.0,0.0,93,0.00,,SCT033,0.00,VWS V15.00,2013-06-12 10:15:00,
2013-06-12 06:17:00,63.1,61.0,29.83,WSW,246,0.0,0.0,93,0.00,,,0.00,VWS V14.01,2013-06-12 10:17:00,
2013-06-12 06:22:00,63.1,61.0,29.83,WSW,246,0.0,0.0,93,0.00,,,0.00,VWS V14.01,2013-06-12 10:22:00,
2013-06-12 06:27:00,63.2,61.2,29.84,WSW,246,0.0,0.0,93,0.00,,,0.00,VWS V14.01,2013-06-12 10:27:00,
2013-06-12 06:30:00,63.2,61.2,29.83,WSW,246,0.0,0.0,93,0.00,,SCT033,0.00,VWS V15.00,2013-06-12 10:30:00,
2013-06-12 06:32:00,63.2,61.2,29.83,WSW,246,0.0,0.0,93,0.00,,,0.00,VWS V14.01,2013-06-12 10:32:00,
2013-06-12 06:37:00,63.3,61.2,29.82,WSW,246,0.0,0.0,93,0.00,,,0.00,VWS V14.01,2013-06-12 10:37:00,
2013-06-12 06:42:00,63.4,61.3,29.82,WSW,246,0.0,0.0,93,0.00,,,0.00,VWS V14.01,2013-06-12 10:42:00,
2013-06-12 06:45:00,63.5,61.4,29.82,WSW,246,0.0,0.0,93,0.00,,SCT033,0.00,VWS V15.00,2013-06-12 10:45:00,
2013-06-12 06:47:00,63.6,61.5,29.82,WSW,246,0.0,0.0,93,0.00,,,0.00,VWS V14.01,2013-06-12 10:47:00,
2013-06-12 06:52:00,63.7,61.6,29.83,WSW,246,0.0,0.0,93,0.00,,,0.00,VWS V14.01,2013-06-12 10:52:00,
2013-06-12 06:57:00,63.9,61.8,29.82,WSW,246,0.0,0.0,93,0.00,,,0.00,VWS V14.01,2013-06-12 10:57:00,
2013-06-12 07:00:00,64.0,61.9,29.82,WSW,246,0.0,0.0,93,0.00,,SCT033,0.00,VWS V15.00,2013-06-12 11:00:00,
2013-06-12 07:02:00,64.0,62.5,29.82,WSW,246,0.0,0.0,95,0.00,,,0.00,VWS V14.01,2013-06-12 11:02:00,
2013-06-12 07:07:00,64.1,62.0,29.81,WSW,245,0.0,0.0,93,0.00,,,0.00,VWS V14.01,2013-06-12 11:07:00,
2013-06-12 07:12:00,64.3,62.2,29.84,WSW,245,0.0,0.0,93,0.00,,,0.00,VWS V14.01,2013-06-12 11:12:00,
2013-06-12 07:15:00,64.4,62.3,29.84,WSW,245,0.0,0.0,93,0.00,,SCT033,0.00,VWS V15.00,2013-06-12 11:15:00,
2013-06-12 07:17:00,64.4,62.3,29.84,WSW,245,0.0,0.0,93,0.00,,,0.00,VWS V14.01,2013-06-12 11:17:00,
2013-06-12 07:22:00,64.5,62.4,29.83,WSW,245,0.0,0.0,93,0.00,,,0.00,VWS V14.01,2013-06-12 11:22:00,
2013-06-12 07:27:00,64.6,62.5,29.82,WSW,245,0.0,0.0,93,0.00,,,0.00,VWS V14.01,2013-06-12 11:27:00,
2013-06-12 07:30:00,64.6,62.5,29.82,WSW,245,0.0,0.0,93,0.00,,SCT033,0.00,VWS V15.00,2013-06-12 11:30:00,
2013-06-12 07:32:00,64.7,62.9,29.81,WSW,245,0.0,0.0,94,0.00,,,0.00,VWS V14.01,2013-06-12 11:32:00,
2013-06-12 07:37:00,64.8,63.0,29.82,WSW,247,0.0,0.0,94,0.00,,,0.00,VWS V14.01,2013-06-12 11:37:00,
2013-06-12 07:42:00,64.9,63.1,29.83,West,260,0.0,0.0,94,0.00,,,0.00,VWS V14.01,2013-06-12 11:42:00,
2013-06-12 07:45:00,64.9,63.1,29.83,West,260,0.0,0.0,94,0.00,,SCT033,0.00,VWS V15.00,2013-06-12 11:45:00,
2013-06-12 07:47:00,64.9,63.1,29.82,West,260,0.0,0.0,94,0.00,,,0.00,VWS V14.01,2013-06-12 11:47:00,
2013-06-12 07:52:00,65.0,63.2,29.81,West,259,0.0,0.0,94,0.00,,,0.00,VWS V14.01,2013-06-12 11:52:00,
2013-06-12 07:57:00,65.2,63.4,29.81,SW,226,0.0,0.0,94,0.00,,,0.00,VWS V14.01,2013-06-12 11:57:00,
2013-06-12 08:00:00,65.2,63.4,29.80,South,185,0.0,0.0,94,0.00,,SCT033,0.00,VWS V15.00,2013-06-12 12:00:00,
2013-06-12 08:02:00,65.3,63.5,29.77,SSE,156,0.0,1.0,94,0.00,,-RA,0.00,VWS V14.01,2013-06-12 12:02:00,
2013-06-12 08:07:00,65.4,63.6,29.75,ESE,119,0.0,3.0,94,0.00,,-RA,0.00,VWS V14.01,2013-06-12 12:07:00,
2013-06-12 08:12:00,65.5,63.7,29.78,ESE,119,0.0,0.0,94,0.00,,-RA,0.00,VWS V14.01,2013-06-12 12:12:00,
2013-06-12 08:15:00,65.5,63.7,29.78,ESE,119,0.0,0.0,94,0.00,,SCT033,0.00,VWS V15.00,2013-06-12 12:15:00,
2013-06-12 08:17:00,65.6,63.8,29.78,ESE,119,0.0,0.0,94,0.00,,-RA,0.00,VWS V14.01,2013-06-12 12:17:00,
2013-06-12 08:23:00,65.6,63.8,29.81,ESE,119,0.0,0.0,94,0.00,,-RA,0.00,VWS V14.01,2013-06-12 12:23:00,
2013-06-12 08:28:00,65.7,63.9,29.83,ESE,119,3.0,5.0,94,0.00,,-RA,0.00,VWS V14.01,2013-06-12 12:28:00,
2013-06-12 08:30:00,65.7,63.9,29.84,ESE,119,0.0,0.0,94,0.00,,SCT033,0.00,VWS V15.00,2013-06-12 12:30:00,
2013-06-12 08:33:00,65.7,63.9,29.84,ESE,119,0.0,0.0,94,0.00,,-RA,0.00,VWS V14.01,2013-06-12 12:33:00,
2013-06-12 08:38:00,65.8,64.0,29.84,ESE,119,0.0,0.0,94,0.00,,-RA,0.00,VWS V14.01,2013-06-12 12:38:00,
2013-06-12 08:43:00,65.8,63.7,29.84,ESE,119,0.0,0.0,93,0.00,,-RA,0.00,VWS V14.01,2013-06-12 12:43:00,
2013-06-12 08:45:00,65.9,63.8,29.84,ESE,119,0.0,0.0,93,0.00,,SCT033,0.00,VWS V15.00,2013-06-12 12:45:00,
2013-06-12 08:48:00,65.9,63.8,29.83,ESE,119,0.0,0.0,93,0.00,,-RA,0.00,VWS V14.01,2013-06-12 12:48:00,
2013-06-12 08:53:00,66.0,63.9,29.81,ESE,119,0.0,0.0,93,0.00,,-RA,0.00,VWS V14.01,2013-06-12 12:53:00,
2013-06-12 08:58:00,66.1,64.3,29.79,ESE,119,0.0,0.0,94,0.00,,-RA,0.00,VWS V14.01,2013-06-12 12:58:00,
2013-06-12 09:00:00,66.1,64.3,29.80,ESE,119,0.0,0.0,94,0.00,,SCT033,0.00,VWS V15.00,2013-06-12 13:00:00,
2013-06-12 09:03:00,66.1,64.3,29.81,ESE,119,0.0,0.0,94,0.00,,-RA,0.00,VWS V14.01,2013-06-12 13:03:00,
2013-06-12 09:08:00,66.2,64.4,29.82,ESE,119,0.0,0.0,94,0.00,,-RA,0.00,VWS V14.01,2013-06-12 13:08:00,
2013-06-12 09:13:00,66.3,64.2,29.82,ESE,119,0.0,0.0,93,0.00,,-RA,0.00,VWS V14.01,2013-06-12 13:13:00,
2013-06-12 09:15:00,66.4,64.3,29.82,ESE,119,0.0,0.0,93,0.00,,SCT033,0.00,VWS V15.00,2013-06-12 13:15:00,
2013-06-12 09:18:00,66.4,64.3,29.83,ESE,119,0.0,0.0,93,0.00,,-RA,0.00,VWS V14.01,2013-06-12 13:18:00,
2013-06-12 09:23:00,66.6,64.5,29.83,ESE,119,0.0,0.0,93,0.00,,-RA,0.00,VWS V14.01,2013-06-12 13:23:00,
2013-06-12 09:28:00,66.7,64.9,29.83,ESE,119,0.0,0.0,94,0.00,,-RA,0.00,VWS V14.01,2013-06-12 13:28:00,
2013-06-12 09:30:00,66.7,64.6,29.84,ESE,118,0.0,0.0,93,0.00,,SCT033,0.00,VWS V15.00,2013-06-12 13:30:00,
2013-06-12 09:33:00,66.8,64.7,29.85,ESE,119,0.0,0.0,93,0.00,,OVC140,0.00,VWS V14.01,2013-06-12 13:33:00,
2013-06-12 09:38:00,66.9,64.8,29.86,ESE,119,0.0,0.0,93,0.00,,OVC140,0.00,VWS V14.01,2013-06-12 13:38:00,
2013-06-12 09:43:00,67.0,64.9,29.87,ESE,119,0.0,0.0,93,0.00,,OVC140,0.00,VWS V14.01,2013-06-12 13:43:00,
2013-06-12 09:45:00,67.1,65.0,29.86,ESE,119,0.0,0.0,93,0.00,,SCT033,0.00,VWS V15.00,2013-06-12 13:45:00,
2013-06-12 09:48:00,67.2,65.1,29.87,ESE,119,0.0,0.0,93,0.00,,OVC140,0.00,VWS V14.01,2013-06-12 13:48:00,
2013-06-12 09:53:00,67.3,65.2,29.88,ESE,119,0.0,0.0,93,0.00,,OVC140,0.00,VWS V14.01,2013-06-12 13:53:00,
2013-06-12 09:58:00,67.3,65.2,29.87,ESE,119,0.0,0.0,93,0.00,,OVC140,0.00,VWS V14.01,2013-06-12 13:58:00,
2013-06-12 10:00:00,67.3,65.2,29.87,ESE,119,0.0,0.0,93,0.00,,SCT033,0.00,VWS V15.00,2013-06-12 14:00:00,
2013-06-12 10:03:00,67.4,65.3,29.85,ESE,119,0.0,0.0,93,0.00,,-RA,0.00,VWS V14.01,2013-06-12 14:03:00,
2013-06-12 10:08:00,67.5,65.4,29.84,ESE,119,0.0,0.0,93,0.00,,-RA,0.00,VWS V14.01,2013-06-12 14:08:00,
2013-06-12 10:13:00,67.6,65.5,29.83,ESE,119,0.0,0.0,93,0.01,,-RA,0.01,VWS V14.01,2013-06-12 14:13:00,
2013-06-12 10:15:00,67.6,65.5,29.83,ESE,119,0.0,0.0,93,0.01,,SCT033,0.01,VWS V15.00,2013-06-12 14:15:00,
2013-06-12 10:18:00,67.7,65.6,29.81,ESE,119,0.0,0.0,93,0.01,,-RA,0.01,VWS V14.01,2013-06-12 14:18:00,
2013-06-12 10:23:00,67.8,65.7,29.80,ESE,119,0.0,0.0,93,0.01,,-RA,0.01,VWS V14.01,2013-06-12 14:23:00,
2013-06-12 10:28:00,67.9,65.8,29.81,ESE,119,0.0,0.0,93,0.01,,-RA,0.01,VWS V14.01,2013-06-12 14:28:00,
2013-06-12 10:30:00,67.9,65.8,29.81,ESE,118,2.0,4.0,93,0.01,,SCT033,0.01,VWS V15.00,2013-06-12 14:30:00,
2013-06-12 10:33:00,68.1,66.0,29.80,ESE,119,0.0,0.0,93,0.01,,-RA,0.01,VWS V14.01,2013-06-12 14:33:00,
2013-06-12 10:38:00,68.3,66.2,29.79,ESE,119,0.0,0.0,93,0.01,,-RA,0.01,VWS V14.01,2013-06-12 14:38:00,
2013-06-12 10:44:00,68.6,66.5,29.80,ESE,119,0.0,0.0,93,0.01,,-RA,0.01,VWS V14.01,2013-06-12 14:44:00,
2013-06-12 10:45:00,68.6,66.5,29.80,ESE,119,0.0,0.0,93,0.01,,SCT033,0.01,VWS V15.00,2013-06-12 14:45:00,
2013-06-12 10:49:00,68.8,66.7,29.80,ESE,119,0.0,0.0,93,0.01,,-RA,0.01,VWS V14.01,2013-06-12 14:49:00,
2013-06-12 10:54:00,69.1,67.0,29.80,ESE,119,0.0,0.0,93,0.01,,-RA,0.01,VWS V14.01,2013-06-12 14:54:00,
2013-06-12 10:59:00,69.5,67.4,29.78,ESE,116,0.0,3.0,93,0.01,,-RA,0.01,VWS V14.01,2013-06-12 14:59:00,
2013-06-12 11:00:00,69.6,67.2,29.77,ESE,116,5.0,6.0,92,0.01,,SCT033,0.01,VWS V15.00,2013-06-12 15:00:00,
2013-06-12 11:04:00,69.9,67.5,29.76,ESE,116,0.0,6.0,92,0.01,,-RA,0.01,VWS V14.01,2013-06-12 15:04:00,
2013-06-12 11:09:00,70.4,68.0,29.76,ESE,116,4.0,6.0,92,0.01,,-RA,0.01,VWS V14.01,2013-06-12 15:09:00,
2013-06-12 11:14:00,71.0,68.2,29.76,SE,136,1.0,6.0,91,0.01,,-RA,0.01,VWS V14.01,2013-06-12 15:14:00,
2013-06-12 11:15:00,71.1,68.3,29.76,SE,136,4.0,11.0,91,0.01,,SCT033,0.01,VWS V15.00,2013-06-12 15:15:00,
2013-06-12 11:19:00,71.7,68.6,29.77,SSE,166,0.0,8.0,90,0.00,,-RA,0.01,VWS V14.01,2013-06-12 15:19:00,
2013-06-12 11:24:00,72.2,68.4,29.78,SE,145,0.0,9.0,88,0.00,,-RA,0.01,VWS V14.01,2013-06-12 15:24:00,
2013-06-12 11:29:00,72.7,67.9,29.78,SSE,162,0.0,8.0,85,0.00,,-RA,0.01,VWS V14.01,2013-06-12 15:29:00,
2013-06-12 11:34:00,73.1,68.0,29.78,SSE,164,0.0,0.0,84,0.00,,,0.01,VWS V14.01,2013-06-12 15:34:00,
2013-06-12 11:39:00,73.4,67.2,29.78,SSE,159,1.0,3.0,81,0.00,,,0.01,VWS V14.01,2013-06-12 15:39:00,
2013-06-12 11:44:00,73.6,67.1,29.78,SSE,159,0.0,0.0,80,0.00,,OVC160,0.01,VWS V14.01,2013-06-12 15:44:00,
2013-06-12 11:45:00,73.7,66.8,29.78,SSE,159,0.0,0.0,79,0.00,,SCT033,0.01,VWS V15.00,2013-06-12 15:45:00,
2013-06-12 11:49:00,73.9,67.0,29.79,SSE,159,0.0,0.0,79,0.00,,OVC160,0.01,VWS V14.01,2013-06-12 15:49:00,
2013-06-12 11:54:00,74.1,66.8,29.80,SSE,159,0.0,0.0,78,0.00,,OVC160,0.01,VWS V14.01,2013-06-12 15:54:00,
2013-06-12 11:59:00,74.2,66.5,29.79,SSE,159,0.0,0.0,77,0.00,,OVC160,0.01,VWS V14.01,2013-06-12 15:59:00,
2013-06-12 12:00:00,74.2,66.5,29.79,SSE,159,0.0,0.0,77,0.00,,SCT033,0.01,VWS V15.00,2013-06-12 16:00:00,
2013-06-12 12:04:00,74.4,66.7,29.79,SSE,159,0.0,0.0,77,0.00,,OVC160,0.01,VWS V14.01,2013-06-12 16:04:00,
2013-06-12 12:09:00,74.5,66.4,29.80,SSE,159,0.0,0.0,76,0.00,,OVC160,0.01,VWS V14.01,2013-06-12 16:09:00,
2013-06-12 12:14:00,74.6,66.5,29.81,SSE,159,0.0,0.0,76,0.00,,OVC180,0.01,VWS V14.01,2013-06-12 16:14:00,
2013-06-12 12:15:00,74.7,66.6,29.81,SSE,159,0.0,0.0,76,0.00,,SCT033,0.01,VWS V15.00,2013-06-12 16:15:00,
2013-06-12 12:19:00,74.7,66.6,29.81,SSE,159,0.0,0.0,76,0.00,,OVC180,0.01,VWS V14.01,2013-06-12 16:19:00,
2013-06-12 12:24:00,74.8,66.7,29.81,SSE,159,0.0,0.0,76,0.00,,OVC180,0.01,VWS V14.01,2013-06-12 16:24:00,
2013-06-12 12:29:00,74.8,66.3,29.80,SSE,159,0.0,0.0,75,0.00,,OVC180,0.01,VWS V14.01,2013-06-12 16:29:00,
2013-06-12 12:30:00,74.8,66.3,29.80,SSE,159,0.0,0.0,75,0.00,,SCT033,0.01,VWS V15.00,2013-06-12 16:30:00,
2013-06-12 12:34:00,74.8,66.3,29.81,SSE,159,0.0,0.0,75,0.00,,OVC180,0.01,VWS V14.01,2013-06-12 16:34:00,
2013-06-12 12:39:00,74.7,66.6,29.81,SSE,159,0.0,0.0,76,0.00,,OVC180,0.01,VWS V14.01,2013-06-12 16:39:00,
2013-06-12 12:44:00,74.6,66.5,29.78,SSE,156,0.0,0.0,76,0.00,,OVC180,0.01,VWS V14.01,2013-06-12 16:44:00,
2013-06-12 12:45:00,74.6,66.5,29.78,SSE,153,0.0,0.0,76,0.00,,SCT033,0.01,VWS V15.00,2013-06-12 16:45:00,
2013-06-12 12:49:00,74.5,67.2,29.76,SE,128,0.0,4.0,78,0.00,,OVC180,0.01,VWS V14.01,2013-06-12 16:49:00,
2013-06-12 12:55:00,74.3,66.6,29.76,ESE,110,0.0,0.0,77,0.00,,OVC180,0.01,VWS V14.01,2013-06-12 16:55:00,
2013-06-12 13:00:00,74.2,66.9,29.78,ESE,113,0.0,0.0,78,0.00,,OVC180,0.01,VWS V14.01,2013-06-12 17:00:00,
2013-06-12 13:05:00,74.1,66.8,29.77,ESE,112,0.0,0.0,78,0.00,,OVC180,0.01,VWS V14.01,2013-06-12 17:05:00,
2013-06-12 13:10:00,74.1,66.8,29.82,ESE,119,5.0,5.0,78,0.00,,OVC180,0.01,VWS V14.01,2013-06-12 17:10:00,
2013-06-12 13:15:00,74.2,67.3,29.80,SE,128,0.0,0.0,79,0.00,,OVC180,0.01,VWS V14.01,2013-06-12 17:15:00,
2013-06-12 13:20:00,74.2,67.6,29.74,SE,128,0.0,1.0,80,0.00,,OVC180,0.01,VWS V14.01,2013-06-12 17:20:00,
2013-06-12 13:25:00,74.2,67.3,29.73,East,87,0.0,2.0,79,0.00,,OVC180,0.01,VWS V14.01,2013-06-12 17:25:00,
2013-06-12 13:30:00,74.2,67.3,29.74,East,87,0.0,3.0,79,0.00,,OVC180,0.01,VWS V14.01,2013-06-12 17:30:00,
2013-06-12 13:35:00,74.1,66.8,29.72,East,92,0.0,0.0,78,0.00,,OVC180,0.01,VWS V14.01,2013-06-12 17:35:00,
2013-06-12 13:40:00,74.1,67.2,29.75,East,92,0.0,0.0,79,0.00,,OVC180,0.01,VWS V14.01,2013-06-12 17:40:00,
2013-06-12 13:45:00,74.2,67.3,29.75,East,92,0.0,0.0,79,0.00,,OVC180,0.01,VWS V14.01,2013-06-12 17:45:00,
2013-06-12 13:50:00,74.3,67.4,29.75,East,92,0.0,0.0,79,0.00,,OVC180,0.01,VWS V14.01,2013-06-12 17:50:00,
2013-06-12 13:55:00,74.5,67.6,29.76,East,92,0.0,0.0,79,0.00,,OVC180,0.01,VWS V14.01,2013-06-12 17:55:00,
2013-06-12 14:00:00,75.0,68.4,29.75,East,92,0.0,0.0,80,0.00,,OVC180,0.01,VWS V14.01,2013-06-12 18:00:00,
2013-06-12 14:05:00,76.3,69.3,29.75,East,92,0.0,0.0,79,0.00,,OVC180,0.01,VWS V14.01,2013-06-12 18:05:00,
2013-06-12 14:10:00,77.0,68.1,29.76,East,92,0.0,0.0,74,0.00,,OVC180,0.01,VWS V14.01,2013-06-12 18:10:00,
2013-06-12 14:15:00,77.5,68.2,29.76,East,92,0.0,0.0,73,0.00,,OVC180,0.01,VWS V14.01,2013-06-12 18:15:00,
2013-06-12 14:20:00,77.9,67.8,29.75,East,92,0.0,0.0,71,0.00,,OVC180,0.01,VWS V14.01,2013-06-12 18:20:00,
2013-06-12 14:25:00,78.0,67.8,29.75,East,92,0.0,0.0,71,0.00,,OVC180,0.01,VWS V14.01,2013-06-12 18:25:00,
2013-06-12 14:30:00,78.1,67.9,29.76,East,92,0.0,0.0,71,0.00,,OVC180,0.01,VWS V14.01,2013-06-12 18:30:00,
2013-06-12 14:35:00,78.0,67.4,29.76,East,92,0.0,0.0,70,0.00,,OVC180,0.01,VWS V14.01,2013-06-12 18:35:00,
2013-06-12 14:40:00,77.9,67.8,29.75,East,92,0.0,0.0,71,0.00,,OVC180,0.01,VWS V14.01,2013-06-12 18:40:00,
2013-06-12 14:45:00,77.8,68.1,29.75,East,92,0.0,0.0,72,0.00,,OVC180,0.01,VWS V14.01,2013-06-12 18:45:00,
2013-06-12 14:50:00,77.7,67.6,29.75,East,92,0.0,0.0,71,0.00,,OVC180,0.01,VWS V14.01,2013-06-12 18:50:00,
2013-06-12 14:55:00,77.6,67.9,29.75,East,92,0.0,0.0,72,0.00,,OVC180,0.01,VWS V14.01,2013-06-12 18:55:00,
2013-06-12 15:00:00,77.4,67.7,29.76,East,92,0.0,1.0,72,0.00,,OVC180,0.01,VWS V14.01,2013-06-12 19:00:00,
2013-06-12 15:05:00,77.2,67.5,29.76,East,92,0.0,0.0,72,0.00,,OVC180,0.01,VWS V14.01,2013-06-12 19:05:00,
2013-06-12 15:11:00,77.0,67.7,29.76,East,93,0.0,0.0,73,0.00,,OVC180,0.01,VWS V14.01,2013-06-12 19:11:00,
2013-06-12 15:15:00,76.9,68.0,29.75,East,93,0.0,0.0,74,0.00,,SCT033,0.01,VWS V15.00,2013-06-12 19:15:00,
2013-06-12 15:16:00,76.9,68.0,29.75,East,93,0.0,0.0,74,0.00,,OVC180,0.01,VWS V14.01,2013-06-12 19:16:00,
2013-06-12 15:21:00,76.5,67.6,29.75,East,93,0.0,0.0,74,0.00,,OVC180,0.01,VWS V14.01,2013-06-12 19:21:00,
2013-06-12 15:26:00,76.3,67.8,29.75,East,92,0.0,0.0,75,0.00,,OVC150,0.01,VWS V14.01,2013-06-12 19:26:00,
2013-06-12 15:30:00,76.2,68.1,29.75,East,92,0.0,0.0,76,0.00,,SCT033,0.01,VWS V15.00,2013-06-12 19:30:00,
2013-06-12 15:31:00,76.2,68.1,29.75,East,92,0.0,0.0,76,0.00,,OVC150,0.01,VWS V14.01,2013-06-12 19:31:00,
2013-06-12 15:36:00,76.0,68.3,29.75,East,92,0.0,0.0,77,0.00,,OVC150,0.01,VWS V14.01,2013-06-12 19:36:00,
2013-06-12 15:41:00,76.0,68.7,29.75,East,92,0.0,0.0,78,0.00,,OVC150,0.01,VWS V14.01,2013-06-12 19:41:00,
2013-06-12 15:45:00,75.9,68.6,29.75,East,92,0.0,0.0,78,0.00,,SCT033,0.01,VWS V15.00,2013-06-12 19:45:00,
2013-06-12 15:46:00,75.9,68.6,29.75,East,92,0.0,0.0,78,0.00,,OVC150,0.01,VWS V14.01,2013-06-12 19:46:00,
2013-06-12 15:51:00,75.9,68.6,29.75,East,92,0.0,0.0,78,0.00,,OVC150,0.01,VWS V14.01,2013-06-12 19:51:00,
2013-06-12 15:56:00,75.8,68.5,29.75,East,92,0.0,0.0,78,0.00,,OVC150,0.01,VWS V14.01,2013-06-12 19:56:00,
2013-06-12 16:00:00,75.8,68.5,29.75,East,92,0.0,0.0,78,0.00,,SCT033,0.01,VWS V15.00,2013-06-12 20:00:00,
2013-06-12 16:01:00,75.8,68.5,29.75,East,92,0.0,0.0,78,0.00,,OVC150,0.01,VWS V14.01,2013-06-12 20:01:00,
2013-06-12 16:06:00,75.8,68.5,29.75,East,92,0.0,0.0,78,0.00,,OVC150,0.01,VWS V14.01,2013-06-12 20:06:00,
2013-06-12 16:11:00,76.0,68.7,29.75,East,92,0.0,0.0,78,0.00,,OVC150,0.01,VWS V14.01,2013-06-12 20:11:00,
2013-06-12 16:15:00,76.0,68.7,29.76,East,92,0.0,0.0,78,0.00,,SCT033,0.01,VWS V15.00,2013-06-12 20:15:00,
2013-06-12 16:16:00,76.1,68.8,29.76,East,92,0.0,0.0,78,0.00,,OVC150,0.01,VWS V14.01,2013-06-12 20:16:00,
2013-06-12 16:21:00,76.3,69.3,29.76,East,92,0.0,0.0,79,0.00,,OVC130,0.01,VWS V14.01,2013-06-12 20:21:00,
2013-06-12 16:26:00,76.6,69.6,29.76,East,92,0.0,0.0,79,0.00,,OVC130,0.01,VWS V14.01,2013-06-12 20:26:00,
2013-06-12 16:30:00,76.9,69.9,29.76,East,92,0.0,0.0,79,0.00,,SCT033,0.01,VWS V15.00,2013-06-12 20:30:00,
2013-06-12 16:31:00,77.0,69.6,29.75,East,92,0.0,0.0,78,0.00,,OVC130,0.01,VWS V14.01,2013-06-12 20:31:00,
2013-06-12 16:36:00,77.1,69.7,29.76,East,92,0.0,0.0,78,0.00,,OVC130,0.01,VWS V14.01,2013-06-12 20:36:00,
2013-06-12 16:41:00,77.3,69.5,29.76,East,92,0.0,0.0,77,0.00,,OVC130,0.01,VWS V14.01,2013-06-12 20:41:00,
2013-06-12 16:45:00,77.4,69.2,29.75,East,92,0.0,0.0,76,0.00,,SCT033,0.01,VWS V15.00,2013-06-12 20:45:00,
2013-06-12 16:46:00,77.5,69.7,29.75,East,92,0.0,0.0,77,0.00,,OVC130,0.01,VWS V14.01,2013-06-12 20:46:00,
2013-06-12 16:51:00,77.8,69.6,29.75,East,92,0.0,0.0,76,0.00,,OVC130,0.01,VWS V14.01,2013-06-12 20:51:00,
2013-06-12 16:56:00,77.8,69.2,29.75,East,92,0.0,0.0,75,0.00,,OVC130,0.01,VWS V14.01,2013-06-12 20:56:00,
2013-06-12 17:00:00,77.9,69.3,29.75,East,92,0.0,0.0,75,0.00,,SCT033,0.01,VWS V15.00,2013-06-12 21:00:00,
2013-06-12 17:01:00,77.9,69.3,29.75,East,92,0.0,0.0,75,0.00,,OVC130,0.01,VWS V14.01,2013-06-12 21:01:00,
2013-06-12 17:06:00,77.9,69.3,29.75,East,92,0.0,0.0,75,0.00,,OVC130,0.01,VWS V14.01,2013-06-12 21:06:00,
2013-06-12 17:11:00,77.9,69.3,29.74,East,92,0.0,3.0,75,0.00,,OVC130,0.01,VWS V14.01,2013-06-12 21:11:00,
2013-06-12 17:15:00,77.9,69.7,29.74,East,92,0.0,5.0,76,0.00,,SCT033,0.01,VWS V15.00,2013-06-12 21:15:00,
2013-06-12 17:16:00,77.9,69.3,29.74,East,92,0.0,0.0,75,0.00,,OVC130,0.01,VWS V14.01,2013-06-12 21:16:00,
2013-06-12 17:21:00,78.2,70.0,29.73,East,92,0.0,0.0,76,0.00,,OVC180,0.01,VWS V14.01,2013-06-12 21:21:00,
2013-06-12 17:26:00,78.3,69.7,29.73,East,84,3.0,7.0,75,0.00,,OVC180,0.01,VWS V14.01,2013-06-12 21:26:00,
2013-06-12 17:30:00,78.3,69.3,29.73,ENE,77,0.0,7.0,74,0.00,,SCT033,0.01,VWS V15.00,2013-06-12 21:30:00,
2013-06-12 17:31:00,78.3,69.3,29.73,ENE,77,0.0,3.0,74,0.00,,OVC180,0.01,VWS V14.01,2013-06-12 21:31:00,
2013-06-12 17:37:00,78.3,69.7,29.73,ENE,77,0.0,0.0,75,0.00,,OVC180,0.01,VWS V14.01,2013-06-12 21:37:00,
2013-06-12 17:42:00,78.3,69.7,29.72,ENE,77,0.0,2.0,75,0.00,,OVC180,0.01,VWS V14.01,2013-06-12 21:42:00,
2013-06-12 17:45:00,78.2,69.6,29.72,ENE,77,0.0,0.0,75,0.00,,SCT033,0.01,VWS V15.00,2013-06-12 21:45:00,
2013-06-12 17:47:00,78.2,69.6,29.72,ENE,77,0.0,6.0,75,0.00,,OVC180,0.01,VWS V14.01,2013-06-12 21:47:00,
2013-06-12 17:52:00,78.1,69.1,29.72,ENE,77,0.0,0.0,74,0.00,,OVC180,0.01,VWS V14.01,2013-06-12 21:52:00,
2013-06-12 17:57:00,78.1,69.1,29.72,ENE,77,0.0,2.0,74,0.00,,OVC180,0.01,VWS V14.01,2013-06-12 21:57:00,
2013-06-12 18:00:00,78.0,69.1,29.71,ENE,77,0.0,0.0,74,0.00,,SCT033,0.01,VWS V15.00,2013-06-12 22:00:00,
2013-06-12 18:02:00,78.0,69.1,29.71,ENE,77,0.0,0.0,74,0.00,,OVC180,0.01,VWS V14.01,2013-06-12 22:02:00,
2013-06-12 18:07:00,78.0,69.4,29.71,ENE,77,1.0,3.0,75,0.00,,OVC180,0.01,VWS V14.01,2013-06-12 22:07:00,
2013-06-12 18:12:00,78.0,69.4,29.70,ENE,77,0.0,0.0,75,0.00,,OVC180,0.01,VWS V14.01,2013-06-12 22:12:00,
2013-06-12 18:15:00,78.0,69.8,29.70,ENE,77,0.0,1.0,76,0.00,,SCT033,0.01,VWS V15.00,2013-06-12 22:15:00,
2013-06-12 18:17:00,78.0,69.4,29.70,ENE,77,0.0,0.0,75,0.00,,OVC180,0.01,VWS V14.01,2013-06-12 22:17:00,
2013-06-12 18:22:00,78.0,69.4,29.70,ENE,77,0.0,0.0,75,0.00,,BKN200,0.01,VWS V14.01,2013-06-12 22:22:00,
2013-06-12 18:27:00,78.1,69.1,29.70,ENE,77,0.0,0.0,74,0.00,,BKN200,0.01,VWS V14.01,2013-06-12 22:27:00,
2013-06-12 18:30:00,78.1,69.5,29.70,ENE,77,3.0,6.0,75,0.00,,SCT033,0.01,VWS V15.00,2013-06-12 22:30:00,
2013-06-12 18:32:00,78.1,69.1,29.69,ENE,77,0.0,0.0,74,0.00,,BKN200,0.01,VWS V14.01,2013-06-12 22:32:00,
2013-06-12 18:37:00,78.1,69.5,29.69,ENE,77,3.0,7.0,75,0.00,,BKN200,0.01,VWS V14.01,2013-06-12 22:37:00,
2013-06-12 18:42:00,78.2,69.6,29.69,ENE,77,0.0,1.0,75,0.00,,BKN200,0.01,VWS V14.01,2013-06-12 22:42:00,
2013-06-12 18:45:00,78.2,69.2,29.69,ENE,77,0.0,6.0,74,0.00,,SCT033,0.01,VWS V15.00,2013-06-12 22:45:00,
2013-06-12 18:47:00,78.1,69.1,29.70,ENE,76,0.0,0.0,74,0.00,,BKN200,0.01,VWS V14.01,2013-06-12 22:47:00,
2013-06-12 18:52:00,78.0,69.1,29.69,ENE,76,0.0,0.0,74,0.00,,BKN200,0.01,VWS V14.01,2013-06-12 22:52:00,
2013-06-12 18:58:00,78.0,69.1,29.69,ENE,76,0.0,0.0,74,0.00,,BKN200,0.01,VWS V14.01,2013-06-12 22:58:00,
2013-06-12 19:00:00,78.0,69.1,29.69,ENE,76,0.0,1.0,74,0.00,,SCT033,0.01,VWS V15.00,2013-06-12 23:00:00,
2013-06-12 19:03:00,77.9,68.9,29.69,ENE,76,0.0,0.0,74,0.00,,BKN200,0.01,VWS V14.01,2013-06-12 23:03:00,
2013-06-12 19:08:00,77.8,68.9,29.69,ENE,76,0.0,6.0,74,0.00,,BKN200,0.01,VWS V14.01,2013-06-12 23:08:00,
2013-06-12 19:13:00,77.8,69.2,29.68,ENE,76,0.0,0.0,75,0.00,,BKN200,0.01,VWS V14.01,2013-06-12 23:13:00,
2013-06-12 19:15:00,77.7,69.2,29.69,ENE,76,0.0,0.0,75,0.00,,SCT033,0.01,VWS V15.00,2013-06-12 23:15:00,
2013-06-12 19:18:00,77.8,69.2,29.69,ENE,76,0.0,0.0,75,0.00,,BKN200,0.01,VWS V14.01,2013-06-12 23:18:00,
2013-06-12 19:23:00,77.7,69.2,29.67,ENE,76,0.0,3.0,75,0.00,,BKN140,0.01,VWS V14.01,2013-06-12 23:23:00,
2013-06-12 19:28:00,77.5,69.0,29.67,ENE,75,0.0,1.0,75,0.00,,BKN140,0.01,VWS V14.01,2013-06-12 23:28:00,
2013-06-12 19:30:00,77.4,68.9,29.67,ENE,78,0.0,1.0,75,0.00,,SCT033,0.01,VWS V15.00,2013-06-12 23:30:00,
2013-06-12 19:33:00,77.4,68.9,29.67,ENE,78,5.0,5.0,75,0.00,,BKN140,0.01,VWS V14.01,2013-06-12 23:33:00,
2013-06-12 19:38:00,77.2,68.7,29.66,ENE,78,3.0,3.0,75,0.00,,BKN140,0.01,VWS V14.01,2013-06-12 23:38:00,
2013-06-12 19:43:00,77.1,69.0,29.65,ENE,78,0.0,3.0,76,0.00,,BKN140,0.01,VWS V14.01,2013-06-12 23:43:00,
2013-06-12 19:45:00,77.0,68.9,29.65,ENE,78,0.0,6.0,76,0.00,,SCT033,0.01,VWS V15.00,2013-06-12 23:45:00,
2013-06-12 19:48:00,76.9,68.8,29.65,ENE,78,0.0,3.0,76,0.00,,BKN140,0.01,VWS V14.01,2013-06-12 23:48:00,
2013-06-12 19:53:00,76.7,68.6,29.66,ENE,78,0.0,0.0,76,0.00,,BKN140,0.01,VWS V14.01,2013-06-12 23:53:00,
2013-06-12 19:58:00,76.5,68.8,29.66,ENE,78,0.0,0.0,77,0.00,,BKN140,0.01,VWS V14.01,2013-06-12 23:58:00,
2013-06-12 20:00:00,76.4,68.7,29.66,ENE,78,0.0,0.0,77,0.00,,SCT033,0.01,VWS V15.00,2013-06-13 00:00:00,
2013-06-12 20:03:00,76.3,68.6,29.67,ENE,78,0.0,0.0,77,0.00,,BKN140,0.01,VWS V14.01,2013-06-13 00:03:00,
2013-06-12 20:08:00,76.2,68.8,29.66,ENE,78,0.0,0.0,78,0.00,,BKN140,0.01,VWS V14.01,2013-06-13 00:08:00,
2013-06-12 20:13:00,75.9,69.3,29.65,ENE,62,4.0,8.0,80,0.04,,BKN140,0.05,VWS V14.01,2013-06-13 00:13:00,
2013-06-12 20:15:00,75.7,69.1,29.65,ENE,62,0.0,0.0,80,0.05,,SCT033,0.06,VWS V15.00,2013-06-13 00:15:00,
2013-06-12 20:18:00,75.5,69.3,29.65,ENE,62,3.0,5.0,81,0.06,,BKN140,0.07,VWS V14.01,2013-06-13 00:18:00,
2013-06-12 20:23:00,74.8,68.9,29.64,NE,55,3.0,9.0,82,0.06,,,0.07,VWS V14.01,2013-06-13 00:23:00,
2013-06-12 20:28:00,74.1,68.6,29.63,NE,55,2.0,7.0,83,0.06,,,0.07,VWS V14.01,2013-06-13 00:28:00,
2013-06-12 20:30:00,73.8,68.3,29.63,NE,55,5.0,5.0,83,0.06,,SCT033,0.07,VWS V15.00,2013-06-13 00:30:00,
2013-06-12 20:33:00,73.6,68.5,29.63,NE,55,0.0,0.0,84,0.06,,,0.07,VWS V14.01,2013-06-13 00:33:00,
2013-06-12 20:38:00,73.3,68.5,29.63,NE,53,0.0,8.0,85,0.06,,,0.07,VWS V14.01,2013-06-13 00:38:00,
2013-06-12 20:43:00,72.9,68.1,29.63,NE,49,0.0,0.0,85,0.06,,,0.07,VWS V14.01,2013-06-13 00:43:00,
2013-06-12 20:45:00,72.8,68.4,29.63,NE,49,3.0,5.0,86,0.06,,SCT033,0.07,VWS V15.00,2013-06-13 00:45:00,
2013-06-12 20:48:00,72.6,68.2,29.62,NE,49,5.0,7.0,86,0.06,,,0.07,VWS V14.01,2013-06-13 00:48:00,
2013-06-12 20:53:00,72.4,68.3,29.61,NE,49,0.0,4.0,87,0.06,,,0.07,VWS V14.01,2013-06-13 00:53:00,
2013-06-12 20:58:00,72.1,68.0,29.64,NNE,28,4.0,7.0,87,0.06,,,0.07,VWS V14.01,2013-06-13 00:58:00,
2013-06-12 21:00:00,72.0,67.9,29.66,WNW,284,9.0,13.0,87,0.06,,SCT033,0.07,VWS V15.00,2013-06-13 01:00:00,
2013-06-12 21:03:00,71.9,68.2,29.69,NW,315,12.0,19.0,88,0.06,,,0.07,VWS V14.01,2013-06-13 01:03:00,
2013-06-12 21:09:00,71.3,67.6,29.59,NE,53,3.0,7.0,88,0.22,,,0.23,VWS V14.01,2013-06-13 01:09:00,
2013-06-12 21:14:00,70.2,66.2,29.62,North,351,1.0,7.0,87,0.26,,,0.27,VWS V14.01,2013-06-13 01:14:00,
2013-06-12 21:15:00,69.9,65.9,29.62,North,6,3.0,8.0,87,0.26,,SCT033,0.27,VWS V15.00,2013-06-13 01:15:00,
2013-06-12 21:19:00,69.2,65.2,29.62,NNE,30,1.0,5.0,87,0.21,,,0.27,VWS V14.01,2013-06-13 01:19:00,
2013-06-12 21:24:00,68.4,64.4,29.62,ENE,66,0.0,10.0,87,0.21,,,0.27,VWS V14.01,2013-06-13 01:24:00,
2013-06-12 21:29:00,67.8,63.8,29.63,NE,49,0.0,0.0,87,0.21,,,0.27,VWS V14.01,2013-06-13 01:29:00,
2013-06-12 21:30:00,67.8,64.1,29.63,NE,52,0.0,0.0,88,0.21,,SCT033,0.27,VWS V15.00,2013-06-13 01:30:00,
2013-06-12 21:34:00,67.6,63.9,29.63,NE,35,1.0,9.0,88,0.20,,,0.27,VWS V14.01,2013-06-13 01:34:00,
2013-06-12 21:39:00,67.5,64.2,29.63,NE,42,0.0,0.0,89,0.20,,,0.27,VWS V14.01,2013-06-13 01:39:00,
2013-06-12 21:44:00,67.5,64.2,29.62,ENE,76,0.0,0.0,89,0.20,,,0.27,VWS V14.01,2013-06-13 01:44:00,
2013-06-12 21:45:00,67.5,64.2,29.62,ENE,74,0.0,0.0,89,0.20,,SCT033,0.27,VWS V15.00,2013-06-13 01:45:00,
2013-06-12 21:49:00,67.5,64.2,29.61,NE,54,3.0,5.0,89,0.20,,,0.27,VWS V14.01,2013-06-13 01:49:00,
2013-06-12 21:54:00,67.5,64.5,29.62,NE,49,0.0,0.0,90,0.20,,,0.27,VWS V14.01,2013-06-13 01:54:00,
2013-06-12 21:59:00,67.4,64.4,29.62,NE,41,0.0,0.0,90,0.20,,,0.27,VWS V14.01,2013-06-13 01:59:00,
2013-06-12 22:00:00,67.4,64.4,29.62,NE,41,0.0,0.0,90,0.20,,SCT033,0.27,VWS V15.00,2013-06-13 02:00:00,
2013-06-12 22:04:00,67.3,64.3,29.60,NNE,30,0.0,7.0,90,0.20,,,0.27,VWS V14.01,2013-06-13 02:04:00,
2013-06-12 22:09:00,67.2,64.2,29.59,ENE,63,0.0,0.0,90,0.20,,,0.27,VWS V14.01,2013-06-13 02:09:00,
2013-06-12 22:14:00,67.1,64.1,29.59,North,1,1.0,6.0,90,0.20,,,0.27,VWS V14.01,2013-06-13 02:14:00,
2013-06-12 22:15:00,67.0,64.0,29.59,NNE,25,4.0,10.0,90,0.20,,SCT033,0.27,VWS V15.00,2013-06-13 02:15:00,
2013-06-12 22:19:00,66.9,63.9,29.59,North,351,6.0,8.0,90,0.00,,,0.27,VWS V14.01,2013-06-13 02:19:00,
2013-06-12 22:24:00,66.8,63.8,29.58,ENE,62,2.0,7.0,90,0.00,,-RA,0.27,VWS V14.01,2013-06-13 02:24:00,
2013-06-12 22:29:00,66.7,63.7,29.58,NE,39,4.0,10.0,90,0.00,,-RA,0.27,VWS V14.01,2013-06-13 02:29:00,
2013-06-12 22:30:00,66.7,63.7,29.58,ENE,78,0.0,7.0,90,0.00,,SCT033,0.27,VWS V15.00,2013-06-13 02:30:00,
2013-06-12 22:34:00,66.5,63.5,29.57,NE,40,2.0,7.0,90,0.01,,-RA,0.28,VWS V14.01,2013-06-13 02:34:00,
2013-06-12 22:39:00,66.4,63.4,29.60,North,357,0.0,0.0,90,0.01,,-RA,0.28,VWS V14.01,2013-06-13 02:39:00,
2013-06-12 22:44:00,66.3,63.3,29.66,WNW,282,7.0,19.0,90,0.01,,-RA,0.28,VWS V14.01,2013-06-13 02:44:00,
2013-06-12 22:45:00,66.3,63.3,29.66,West,275,7.0,13.0,90,0.01,,SCT033,0.28,VWS V15.00,2013-06-13 02:45:00,
2013-06-12 22:49:00,66.6,63.9,29.66,West,280,13.0,15.0,91,0.04,,-RA,0.31,VWS V14.01,2013-06-13 02:49:00,
2013-06-12 22:54:00,66.6,63.9,29.66,NNE,12,3.0,6.0,91,0.18,,,0.45,VWS V14.01,2013-06-13 02:54:00,
2013-06-12 22:59:00,66.6,63.9,29.66,NNW,329,0.0,0.0,91,0.20,,,0.47,VWS V14.01,2013-06-13 02:59:00,
2013-06-12 23:00:00,66.7,64.0,29.66,NNW,330,0.0,0.0,91,0.20,,SCT033,0.47,VWS V15.00,2013-06-13 03:00:00,
2013-06-12 23:04:00,66.8,64.1,29.65,NNE,23,0.0,0.0,91,0.23,,,0.50,VWS V14.01,2013-06-13 03:04:00,
2013-06-12 23:09:00,66.8,64.1,29.65,North,355,0.0,0.0,91,0.28,,,0.55,VWS V14.01,2013-06-13 03:09:00,
2013-06-12 23:15:00,66.8,64.1,29.65,NNE,25,0.0,0.0,91,0.31,,,0.58,VWS V14.01,2013-06-13 03:15:00,
2013-06-12 23:20:00,66.7,64.0,29.66,North,351,0.0,0.0,91,0.34,,,0.61,VWS V14.01,2013-06-13 03:20:00,
2013-06-12 23:25:00,66.6,63.9,29.66,NNW,341,0.0,0.0,91,0.35,,,0.62,VWS V14.01,2013-06-13 03:25:00,
2013-06-12 23:30:00,66.5,64.1,29.65,North,10,0.0,3.0,92,0.36,,,0.63,VWS V14.01,2013-06-13 03:30:00,
2013-06-12 23:35:00,66.3,63.9,29.65,NNE,19,0.0,0.0,92,0.38,,,0.65,VWS V14.01,2013-06-13 03:35:00,
2013-06-12 23:40:00,66.3,63.6,29.65,NNE,17,0.0,0.0,91,0.39,,,0.66,VWS V14.01,2013-06-13 03:40:00,
2013-06-12 23:45:00,66.2,63.5,29.65,NNE,17,0.0,0.0,91,0.40,,,0.67,VWS V14.01,2013-06-13 03:45:00,
2013-06-12 23:50:00,66.2,63.8,29.65,NNE,17,0.0,0.0,92,0.40,,,0.68,VWS V14.01,2013-06-13 03:50:00,
2013-06-12 23:55:00,66.1,63.7,29.65,NNE,17,0.0,0.0,92,0.41,,RA,0.69,VWS V14.01,2013-06-13 03:55:00,